Year,Month,Day,Hour,Minute,Value (Times are PST for temperature in C)
2008,08,22,00,00,14.70
2008,08,22,00,01,14.80
2008,08,22,00,02,14.80
2008,08,22,00,03,14.80
2008,08,22,00,04,14.90
2008,08,22,00,05,14.90
2008,08,22,00,06,14.90
2008,08,22,00,07,14.90
2008,08,22,00,08,14.90
2008,08,22,00,09,14.90
2008,08,22,00,10,14.90
2008,08,22,00,11,15.00
2008,08,22,00,12,15.00
2008,08,22,00,13,15.00
2008,08,22,00,14,15.00
2008,08,22,00,15,15.00
2008,08,22,00,16,15.00
2008,08,22,00,17,15.00
2008,08,22,00,18,15.00
2008,08,22,00,19,15.00
2008,08,22,00,20,15.00
2008,08,22,00,21,15.00
2008,08,22,00,22,15.00
2008,08,22,00,23,15.00
2008,08,22,00,24,15.00
2008,08,22,00,25,15.00
2008,08,22,00,26,14.90
2008,08,22,00,27,14.90
2008,08,22,00,28,15.00
2008,08,22,00,29,15.00
2008,08,22,00,30,15.00
2008,08,22,00,31,15.00
2008,08,22,00,32,15.00
2008,08,22,00,33,15.00
2008,08,22,00,34,15.00
2008,08,22,00,35,15.00
2008,08,22,00,36,15.00
2008,08,22,00,37,15.10
2008,08,22,00,38,15.10
2008,08,22,00,39,15.10
2008,08,22,00,40,15.10
2008,08,22,00,41,15.00
2008,08,22,00,42,15.00
2008,08,22,00,43,15.00
2008,08,22,00,44,15.00
2008,08,22,00,45,15.00
2008,08,22,00,46,15.00
2008,08,22,00,47,15.00
2008,08,22,00,48,15.00
2008,08,22,00,49,14.90
2008,08,22,00,50,14.90
2008,08,22,00,51,14.80
2008,08,22,00,52,14.90
2008,08,22,00,53,14.90
2008,08,22,00,54,14.90
2008,08,22,00,55,14.90
2008,08,22,00,56,14.90
2008,08,22,00,57,14.90
2008,08,22,00,58,14.90
2008,08,22,00,59,14.90
2008,08,22,01,00,14.80
2008,08,22,01,01,14.80
2008,08,22,01,02,14.70
2008,08,22,01,03,14.70
2008,08,22,01,04,14.70
2008,08,22,01,05,14.70
2008,08,22,01,06,14.70
2008,08,22,01,07,14.70
2008,08,22,01,08,14.70
2008,08,22,01,09,14.70
2008,08,22,01,10,14.70
2008,08,22,01,11,14.70
2008,08,22,01,12,14.70
2008,08,22,01,13,14.70
2008,08,22,01,14,14.60
2008,08,22,01,15,14.60
2008,08,22,01,16,14.60
2008,08,22,01,17,14.60
2008,08,22,01,18,14.60
2008,08,22,01,19,14.60
2008,08,22,01,20,14.60
2008,08,22,01,21,14.50
2008,08,22,01,22,14.50
2008,08,22,01,23,14.40
2008,08,22,01,24,14.40
2008,08,22,01,25,14.40
2008,08,22,01,26,14.30
2008,08,22,01,27,14.30
2008,08,22,01,28,14.30
2008,08,22,01,29,14.30
2008,08,22,01,30,14.20
2008,08,22,01,31,14.20
2008,08,22,01,32,14.20
2008,08,22,01,33,14.20
2008,08,22,01,34,14.10
2008,08,22,01,35,14.10
2008,08,22,01,36,14.10
2008,08,22,01,37,14.00
2008,08,22,01,38,14.00
2008,08,22,01,39,14.00
2008,08,22,01,40,14.00
2008,08,22,01,41,13.90
2008,08,22,01,42,13.90
2008,08,22,01,43,13.90
2008,08,22,01,44,13.90
2008,08,22,01,45,13.90
2008,08,22,01,46,13.80
2008,08,22,01,47,13.80
2008,08,22,01,48,13.80
2008,08,22,01,49,13.80
2008,08,22,01,50,13.80
2008,08,22,01,51,13.80
2008,08,22,01,52,13.70
2008,08,22,01,53,13.70
2008,08,22,01,54,13.70
2008,08,22,01,55,13.60
2008,08,22,01,56,13.60
2008,08,22,01,57,13.60
2008,08,22,01,58,13.50
2008,08,22,01,59,13.40
2008,08,22,02,00,13.30
2008,08,22,02,01,13.20
2008,08,22,02,02,13.10
2008,08,22,02,03,13.00
2008,08,22,02,04,12.90
2008,08,22,02,05,12.90
2008,08,22,02,06,12.80
2008,08,22,02,07,12.80
2008,08,22,02,08,12.80
2008,08,22,02,09,12.80
2008,08,22,02,10,12.70
2008,08,22,02,11,12.70
2008,08,22,02,12,12.70
2008,08,22,02,13,12.70
2008,08,22,02,14,12.60
2008,08,22,02,15,12.60
2008,08,22,02,16,12.50
2008,08,22,02,17,12.50
2008,08,22,02,18,12.50
2008,08,22,02,19,12.50
2008,08,22,02,20,12.40
2008,08,22,02,21,12.40
2008,08,22,02,22,12.40
2008,08,22,02,23,12.40
2008,08,22,02,24,12.30
2008,08,22,02,25,12.30
2008,08,22,02,26,12.20
2008,08,22,02,27,12.20
2008,08,22,02,28,12.10
2008,08,22,02,29,12.00
2008,08,22,02,30,12.00
2008,08,22,02,31,11.90
2008,08,22,02,32,11.90
2008,08,22,02,33,11.90
2008,08,22,02,34,11.90
2008,08,22,02,35,11.90
2008,08,22,02,36,11.90
2008,08,22,02,37,11.90
2008,08,22,02,38,11.90
2008,08,22,02,39,11.80
2008,08,22,02,40,11.80
2008,08,22,02,41,11.80
2008,08,22,02,42,11.80
2008,08,22,02,43,11.80
2008,08,22,02,44,11.80
2008,08,22,02,45,11.80
2008,08,22,02,46,11.80
2008,08,22,02,47,11.80
2008,08,22,02,48,11.80
2008,08,22,02,49,11.80
2008,08,22,02,50,11.70
2008,08,22,02,51,11.70
2008,08,22,02,52,11.70
2008,08,22,02,53,11.70
2008,08,22,02,54,11.70
2008,08,22,02,55,11.60
2008,08,22,02,56,11.60
2008,08,22,02,57,11.60
2008,08,22,02,58,11.60
2008,08,22,02,59,11.60
2008,08,22,03,00,11.60
2008,08,22,03,01,11.60
2008,08,22,03,02,11.60
2008,08,22,03,03,11.50
2008,08,22,03,04,11.50
2008,08,22,03,05,11.40
2008,08,22,03,06,11.40
2008,08,22,03,07,11.40
2008,08,22,03,08,11.30
2008,08,22,03,09,11.30
2008,08,22,03,10,11.30
2008,08,22,03,11,11.30
2008,08,22,03,12,11.30
2008,08,22,03,13,11.30
2008,08,22,03,14,11.30
2008,08,22,03,15,11.30
2008,08,22,03,16,11.30
2008,08,22,03,17,11.30
2008,08,22,03,18,11.30
2008,08,22,03,19,11.30
2008,08,22,03,20,11.30
2008,08,22,03,21,11.30
2008,08,22,03,22,11.30
2008,08,22,03,23,11.30
2008,08,22,03,24,11.30
2008,08,22,03,25,11.30
2008,08,22,03,26,11.20
2008,08,22,03,27,11.20
2008,08,22,03,28,11.20
2008,08,22,03,29,11.20
2008,08,22,03,30,11.20
2008,08,22,04,02,11.40
2008,08,22,04,03,11.40
2008,08,22,04,04,11.40
2008,08,22,04,05,11.40
2008,08,22,04,06,11.40
2008,08,22,04,07,11.40
2008,08,22,04,08,11.40
2008,08,22,04,09,11.50
2008,08,22,04,10,11.50
2008,08,22,04,11,11.50
2008,08,22,04,12,11.50
2008,08,22,04,13,11.60
2008,08,22,04,14,11.60
2008,08,22,04,15,11.60
2008,08,22,04,16,11.60
2008,08,22,04,17,11.60
2008,08,22,04,18,11.60
2008,08,22,04,19,11.60
2008,08,22,04,20,11.60
2008,08,22,04,21,11.60
2008,08,22,04,22,11.60
2008,08,22,04,23,11.60
2008,08,22,04,24,11.60
2008,08,22,04,25,11.60
2008,08,22,04,26,11.60
2008,08,22,04,27,11.60
2008,08,22,04,28,11.60
2008,08,22,04,29,11.60
2008,08,22,04,30,11.60
2008,08,22,04,31,11.60
2008,08,22,04,32,11.60
2008,08,22,04,33,11.60
2008,08,22,04,34,11.60
2008,08,22,04,35,11.60
2008,08,22,04,36,11.60
2008,08,22,04,37,11.60
2008,08,22,04,38,11.60
2008,08,22,04,39,11.50
2008,08,22,04,40,11.50
2008,08,22,04,41,11.50
2008,08,22,04,42,11.50
2008,08,22,04,43,11.50
2008,08,22,04,44,11.50
2008,08,22,04,45,11.50
2008,08,22,04,46,11.50
2008,08,22,04,47,11.50
2008,08,22,04,48,11.50
2008,08,22,04,49,11.50
2008,08,22,04,50,11.50
2008,08,22,04,51,11.40
2008,08,22,04,52,11.40
2008,08,22,04,53,11.40
2008,08,22,04,54,11.40
2008,08,22,04,55,11.40
2008,08,22,04,56,11.40
2008,08,22,04,57,11.40
2008,08,22,04,58,11.30
2008,08,22,04,59,11.30
2008,08,22,05,00,11.30
2008,08,22,05,01,11.30
2008,08,22,05,02,11.30
2008,08,22,05,03,11.30
2008,08,22,05,04,11.30
2008,08,22,05,05,11.30
2008,08,22,05,06,11.30
2008,08,22,05,07,11.30
2008,08,22,05,08,11.30
2008,08,22,05,09,11.30
2008,08,22,05,10,11.30
2008,08,22,05,11,11.30
2008,08,22,05,12,11.30
2008,08,22,05,13,11.30
2008,08,22,05,14,11.30
2008,08,22,05,15,11.30
2008,08,22,05,16,11.30
2008,08,22,05,17,11.30
2008,08,22,05,18,11.30
2008,08,22,05,19,11.30
2008,08,22,05,20,11.30
2008,08,22,05,21,11.30
2008,08,22,05,22,11.30
2008,08,22,05,23,11.20
2008,08,22,05,24,11.20
2008,08,22,05,25,11.20
2008,08,22,05,26,11.20
2008,08,22,05,27,11.20
2008,08,22,05,28,11.20
2008,08,22,05,29,11.20
2008,08,22,05,30,11.10
2008,08,22,05,31,11.10
2008,08,22,05,32,11.10
2008,08,22,05,33,11.10
2008,08,22,05,34,11.10
2008,08,22,05,35,11.10
2008,08,22,05,36,11.10
2008,08,22,05,37,11.10
2008,08,22,05,38,11.10
2008,08,22,05,39,11.10
2008,08,22,05,40,11.10
2008,08,22,05,41,11.10
2008,08,22,05,42,11.10
2008,08,22,05,43,11.10
2008,08,22,05,44,11.10
2008,08,22,05,45,11.10
2008,08,22,05,46,11.10
2008,08,22,05,47,11.10
2008,08,22,05,48,11.20
2008,08,22,05,49,11.20
2008,08,22,05,50,11.20
2008,08,22,05,51,11.20
2008,08,22,05,52,11.20
2008,08,22,05,53,11.20
2008,08,22,05,54,11.20
2008,08,22,05,55,11.30
2008,08,22,05,56,11.30
2008,08,22,05,57,11.30
2008,08,22,05,58,11.30
2008,08,22,05,59,11.30
2008,08,22,06,00,11.30
2008,08,22,06,01,11.30
2008,08,22,06,02,11.40
2008,08,22,06,03,11.40
2008,08,22,06,04,11.40
2008,08,22,06,05,11.40
2008,08,22,06,06,11.40
2008,08,22,06,07,11.40
2008,08,22,06,08,11.40
2008,08,22,06,09,11.40
2008,08,22,06,10,11.40
2008,08,22,06,11,11.40
2008,08,22,06,12,11.40
2008,08,22,06,13,11.40
2008,08,22,06,14,11.40
2008,08,22,06,15,11.40
2008,08,22,06,16,11.40
2008,08,22,06,17,11.40
2008,08,22,06,18,11.40
2008,08,22,06,19,11.40
2008,08,22,06,20,11.40
2008,08,22,06,21,11.40
2008,08,22,06,22,11.40
2008,08,22,06,23,11.40
2008,08,22,06,24,11.40
2008,08,22,06,25,11.40
2008,08,22,06,26,11.40
2008,08,22,06,27,11.40
2008,08,22,06,28,11.40
2008,08,22,06,29,11.40
2008,08,22,06,30,11.40
2008,08,22,06,31,11.40
2008,08,22,06,32,11.40
2008,08,22,06,33,11.40
2008,08,22,06,34,11.40
2008,08,22,06,35,11.50
2008,08,22,06,36,11.50
2008,08,22,06,37,11.50
2008,08,22,06,38,11.50
2008,08,22,06,39,11.50
2008,08,22,06,40,11.50
2008,08,22,06,41,11.50
2008,08,22,06,42,11.50
2008,08,22,06,43,11.50
2008,08,22,06,44,11.50
2008,08,22,06,45,11.50
2008,08,22,06,46,11.50
2008,08,22,06,47,11.50
2008,08,22,06,48,11.50
2008,08,22,06,49,11.50
2008,08,22,06,50,11.50
2008,08,22,06,51,11.50
2008,08,22,06,52,11.50
2008,08,22,06,53,11.60
2008,08,22,06,54,11.60
2008,08,22,06,55,11.60
2008,08,22,06,56,11.60
2008,08,22,06,57,11.60
2008,08,22,06,58,11.60
2008,08,22,06,59,11.60
2008,08,22,07,00,11.60
2008,08,22,07,01,11.60
2008,08,22,07,02,11.60
2008,08,22,07,03,11.60
2008,08,22,07,04,11.60
2008,08,22,07,05,11.60
2008,08,22,07,06,11.60
2008,08,22,07,07,11.60
2008,08,22,07,08,11.60
2008,08,22,07,09,11.60
2008,08,22,07,10,11.60
2008,08,22,07,11,11.60
2008,08,22,07,12,11.60
2008,08,22,07,13,11.60
2008,08,22,07,14,11.60
2008,08,22,07,15,11.60
2008,08,22,07,16,11.60
2008,08,22,07,17,11.60
2008,08,22,07,18,11.60
2008,08,22,07,19,11.60
2008,08,22,07,20,11.60
2008,08,22,07,21,11.70
2008,08,22,07,22,11.70
2008,08,22,07,23,11.70
2008,08,22,07,24,11.70
2008,08,22,07,25,11.80
2008,08,22,07,26,11.80
2008,08,22,07,27,11.90
2008,08,22,07,28,11.90
2008,08,22,07,29,11.90
2008,08,22,07,30,12.00
2008,08,22,07,31,12.00
2008,08,22,07,32,12.10
2008,08,22,07,33,12.10
2008,08,22,07,34,12.10
2008,08,22,07,35,12.10
2008,08,22,07,36,12.20
2008,08,22,07,37,12.20
2008,08,22,07,38,12.20
2008,08,22,07,39,12.20
2008,08,22,07,40,12.30
2008,08,22,07,41,12.30
2008,08,22,07,42,12.30
2008,08,22,07,43,12.30
2008,08,22,07,44,12.30
2008,08,22,07,45,12.30
2008,08,22,07,46,12.30
2008,08,22,07,47,12.30
2008,08,22,07,48,12.30
2008,08,22,07,49,12.30
2008,08,22,07,50,12.30
2008,08,22,07,51,12.30
2008,08,22,07,52,12.30
2008,08,22,07,53,12.30
2008,08,22,07,54,12.30
2008,08,22,07,55,12.30
2008,08,22,07,56,12.30
2008,08,22,07,57,12.30
2008,08,22,07,58,12.30
2008,08,22,07,59,12.40
2008,08,22,08,00,12.40
2008,08,22,08,01,12.50
2008,08,22,08,02,12.60
2008,08,22,08,03,12.60
2008,08,22,08,04,12.70
2008,08,22,08,05,12.70
2008,08,22,08,06,12.70
2008,08,22,08,07,12.80
2008,08,22,08,08,12.80
2008,08,22,08,09,12.90
2008,08,22,08,10,12.90
2008,08,22,08,11,13.00
2008,08,22,08,12,13.10
2008,08,22,08,13,13.10
2008,08,22,08,14,13.10
2008,08,22,08,15,13.20
2008,08,22,08,16,13.20
2008,08,22,08,17,13.20
2008,08,22,08,18,13.30
2008,08,22,08,19,13.30
2008,08,22,08,20,13.30
2008,08,22,08,21,13.40
2008,08,22,08,22,13.50
2008,08,22,08,23,13.50
2008,08,22,08,24,13.60
2008,08,22,08,25,13.70
2008,08,22,08,26,13.80
2008,08,22,08,27,13.80
2008,08,22,08,28,13.80
2008,08,22,08,29,13.90
2008,08,22,08,30,13.90
2008,08,22,08,31,13.90
2008,08,22,08,32,13.90
2008,08,22,08,33,13.90
2008,08,22,08,34,13.80
2008,08,22,08,35,13.80
2008,08,22,08,36,13.80
2008,08,22,08,37,13.80
2008,08,22,08,38,13.80
2008,08,22,08,39,13.80
2008,08,22,08,40,13.90
2008,08,22,08,41,13.90
2008,08,22,08,42,14.00
2008,08,22,08,43,14.10
2008,08,22,08,44,14.20
2008,08,22,08,45,14.30
2008,08,22,08,46,14.30
2008,08,22,08,47,14.40
2008,08,22,08,48,14.50
2008,08,22,08,49,14.60
2008,08,22,08,50,14.70
2008,08,22,08,51,14.80
2008,08,22,08,52,15.00
2008,08,22,08,53,15.00
2008,08,22,08,54,15.00
2008,08,22,08,55,15.00
2008,08,22,08,56,15.00
2008,08,22,08,57,15.00
2008,08,22,08,58,15.00
2008,08,22,08,59,15.00
2008,08,22,09,00,15.00
2008,08,22,09,01,15.00
2008,08,22,09,02,15.00
2008,08,22,09,03,15.00
2008,08,22,09,04,15.00
2008,08,22,09,05,15.00
2008,08,22,09,06,15.20
2008,08,22,09,07,15.30
2008,08,22,09,08,15.40
2008,08,22,09,09,15.50
2008,08,22,09,10,15.60
2008,08,22,09,11,15.70
2008,08,22,09,12,15.80
2008,08,22,09,13,15.90
2008,08,22,09,14,16.00
2008,08,22,09,15,16.00
2008,08,22,09,16,16.10
2008,08,22,09,17,16.10
2008,08,22,09,18,16.10
2008,08,22,09,19,16.10
2008,08,22,09,20,16.10
2008,08,22,09,21,16.10
2008,08,22,09,22,16.20
2008,08,22,09,23,16.20
2008,08,22,09,24,16.30
2008,08,22,09,25,16.30
2008,08,22,09,26,16.40
2008,08,22,09,27,16.40
2008,08,22,09,28,16.50
2008,08,22,09,29,16.60
2008,08,22,09,30,16.70
2008,08,22,09,31,16.80
2008,08,22,09,32,16.90
2008,08,22,09,33,17.00
2008,08,22,09,34,17.00
2008,08,22,09,35,17.10
2008,08,22,09,36,17.10
2008,08,22,09,37,17.10
2008,08,22,09,38,17.10
2008,08,22,09,39,17.10
2008,08,22,09,40,17.10
2008,08,22,09,41,17.10
2008,08,22,09,42,17.10
2008,08,22,09,43,17.10
2008,08,22,09,44,17.20
2008,08,22,09,45,17.20
2008,08,22,09,46,17.20
2008,08,22,09,47,17.10
2008,08,22,09,48,17.10
2008,08,22,09,49,17.10
2008,08,22,09,50,17.10
2008,08,22,09,51,17.10
2008,08,22,09,52,17.10
2008,08,22,09,53,17.20
2008,08,22,09,54,17.30
2008,08,22,09,55,17.30
2008,08,22,09,56,17.40
2008,08,22,09,57,17.50
2008,08,22,09,58,17.60
2008,08,22,09,59,17.70
2008,08,22,10,00,17.80
2008,08,22,10,01,17.80
2008,08,22,10,02,17.90
2008,08,22,10,03,18.00
2008,08,22,10,04,18.20
2008,08,22,10,05,18.30
2008,08,22,10,06,18.30
2008,08,22,10,07,18.40
2008,08,22,10,08,18.40
2008,08,22,10,09,18.50
2008,08,22,10,10,18.60
2008,08,22,10,11,18.60
2008,08,22,10,12,18.60
2008,08,22,10,13,18.70
2008,08,22,10,14,18.70
2008,08,22,10,15,18.60
2008,08,22,10,16,18.50
2008,08,22,10,17,18.40
2008,08,22,10,18,18.20
2008,08,22,10,19,18.00
2008,08,22,10,20,17.80
2008,08,22,10,21,17.70
2008,08,22,10,22,17.60
2008,08,22,10,23,17.40
2008,08,22,10,24,17.40
2008,08,22,10,25,17.40
2008,08,22,10,26,17.30
2008,08,22,10,27,17.30
2008,08,22,10,28,17.30
2008,08,22,10,29,17.40
2008,08,22,10,30,17.40
2008,08,22,10,31,17.50
2008,08,22,10,32,17.60
2008,08,22,10,33,17.60
2008,08,22,10,34,17.70
2008,08,22,10,35,17.70
2008,08,22,10,36,17.80
2008,08,22,10,37,17.80
2008,08,22,10,38,17.80
2008,08,22,10,39,17.90
2008,08,22,10,40,18.00
2008,08,22,10,41,18.00
2008,08,22,10,42,18.10
2008,08,22,10,43,18.10
2008,08,22,10,44,18.10
2008,08,22,10,45,18.10
2008,08,22,10,46,18.10
2008,08,22,10,47,18.10
2008,08,22,10,48,18.00
2008,08,22,10,49,18.00
2008,08,22,10,50,18.00
2008,08,22,10,51,18.00
2008,08,22,10,52,18.00
2008,08,22,10,53,18.20
2008,08,22,10,54,18.30
2008,08,22,10,55,18.40
2008,08,22,10,56,18.50
2008,08,22,10,57,18.50
2008,08,22,10,58,18.50
2008,08,22,10,59,18.50
2008,08,22,11,00,18.60
2008,08,22,11,01,18.60
2008,08,22,11,02,18.60
2008,08,22,11,03,18.60
2008,08,22,11,04,18.50
2008,08,22,11,05,18.50
2008,08,22,11,06,18.50
2008,08,22,11,07,18.50
2008,08,22,11,08,18.60
2008,08,22,11,09,18.70
2008,08,22,11,10,18.70
2008,08,22,11,11,18.70
2008,08,22,11,12,18.70
2008,08,22,11,13,18.70
2008,08,22,11,14,18.70
2008,08,22,11,15,18.70
2008,08,22,11,16,18.70
2008,08,22,11,17,18.50
2008,08,22,11,18,18.40
2008,08,22,11,19,18.30
2008,08,22,11,20,18.20
2008,08,22,11,21,18.20
2008,08,22,11,22,18.20
2008,08,22,11,23,18.30
2008,08,22,11,24,18.30
2008,08,22,11,25,18.40
2008,08,22,11,26,18.40
2008,08,22,11,27,18.40
2008,08,22,11,28,18.40
2008,08,22,11,29,18.50
2008,08,22,11,30,18.50
2008,08,22,11,31,18.50
2008,08,22,11,32,18.60
2008,08,22,11,33,18.80
2008,08,22,11,34,18.80
2008,08,22,11,35,18.90
2008,08,22,11,36,19.00
2008,08,22,11,37,19.00
2008,08,22,11,38,19.10
2008,08,22,11,39,19.10
2008,08,22,11,40,19.10
2008,08,22,11,41,19.00
2008,08,22,11,42,18.90
2008,08,22,11,43,18.90
2008,08,22,11,44,19.00
2008,08,22,11,45,19.00
2008,08,22,11,46,19.00
2008,08,22,11,47,19.10
2008,08,22,11,48,19.20
2008,08,22,11,49,19.20
2008,08,22,11,50,19.20
2008,08,22,11,51,19.20
2008,08,22,11,52,19.20
2008,08,22,11,53,19.30
2008,08,22,11,54,19.20
2008,08,22,11,55,19.20
2008,08,22,11,56,19.10
2008,08,22,11,57,19.20
2008,08,22,11,58,19.30
2008,08,22,11,59,19.40
2008,08,22,12,00,19.50
2008,08,22,12,01,19.70
2008,08,22,12,02,19.80
2008,08,22,12,03,19.90
2008,08,22,12,04,19.90
2008,08,22,12,05,19.90
2008,08,22,12,06,20.00
2008,08,22,12,07,20.10
2008,08,22,12,08,20.20
2008,08,22,12,09,20.20
2008,08,22,12,10,20.10
2008,08,22,12,11,20.00
2008,08,22,12,12,19.90
2008,08,22,12,13,19.90
2008,08,22,12,14,19.90
2008,08,22,12,15,19.90
2008,08,22,12,16,20.00
2008,08,22,12,17,20.10
2008,08,22,12,18,20.10
2008,08,22,12,19,20.00
2008,08,22,12,20,19.90
2008,08,22,12,21,20.00
2008,08,22,12,22,20.10
2008,08,22,12,23,20.20
2008,08,22,12,24,20.30
2008,08,22,12,25,20.30
2008,08,22,12,26,20.30
2008,08,22,12,27,20.20
2008,08,22,12,28,20.00
2008,08,22,12,29,19.80
2008,08,22,12,30,19.80
2008,08,22,12,31,19.80
2008,08,22,12,32,19.80
2008,08,22,12,33,19.90
2008,08,22,12,34,20.00
2008,08,22,12,35,20.00
2008,08,22,12,36,20.00
2008,08,22,12,37,20.00
2008,08,22,12,38,20.00
2008,08,22,12,39,19.90
2008,08,22,12,40,19.80
2008,08,22,12,41,19.80
2008,08,22,12,42,19.80
2008,08,22,12,43,19.80
2008,08,22,12,44,19.90
2008,08,22,12,45,20.00
2008,08,22,12,46,20.10
2008,08,22,12,47,20.20
2008,08,22,12,48,20.20
2008,08,22,12,49,20.10
2008,08,22,12,50,20.00
2008,08,22,12,51,20.00
2008,08,22,12,52,20.00
2008,08,22,12,53,20.00
2008,08,22,12,54,20.00
2008,08,22,12,55,20.00
2008,08,22,12,56,20.00
2008,08,22,12,57,20.00
2008,08,22,12,58,20.00
2008,08,22,12,59,20.00
2008,08,22,13,00,19.90
2008,08,22,13,01,19.80
2008,08,22,13,02,19.80
2008,08,22,13,03,19.80
2008,08,22,13,04,19.80
2008,08,22,13,05,19.80
2008,08,22,13,06,19.80
2008,08,22,13,07,19.90
2008,08,22,13,08,20.00
2008,08,22,13,09,20.10
2008,08,22,13,10,20.20
2008,08,22,13,11,20.20
2008,08,22,13,12,20.30
2008,08,22,13,13,20.40
2008,08,22,13,14,20.40
2008,08,22,13,15,20.40
2008,08,22,13,16,20.30
2008,08,22,13,17,20.30
2008,08,22,13,18,20.30
2008,08,22,13,19,20.40
2008,08,22,13,20,20.40
2008,08,22,13,21,20.40
2008,08,22,13,22,20.30
2008,08,22,13,23,20.30
2008,08,22,13,24,20.40
2008,08,22,13,25,20.30
2008,08,22,13,26,20.30
2008,08,22,13,27,20.20
2008,08,22,13,28,20.10
2008,08,22,13,29,19.90
2008,08,22,13,30,19.80
2008,08,22,13,31,19.70
2008,08,22,13,32,19.60
2008,08,22,13,33,19.60
2008,08,22,13,34,19.60
2008,08,22,13,35,19.60
2008,08,22,13,36,19.60
2008,08,22,13,37,19.60
2008,08,22,13,38,19.60
2008,08,22,13,39,19.50
2008,08,22,13,40,19.50
2008,08,22,13,41,19.50
2008,08,22,13,42,19.50
2008,08,22,13,43,19.60
2008,08,22,13,44,19.60
2008,08,22,13,45,19.70
2008,08,22,13,46,19.70
2008,08,22,13,47,19.80
2008,08,22,13,48,19.80
2008,08,22,13,49,19.90
2008,08,22,13,50,19.90
2008,08,22,13,51,19.90
2008,08,22,13,52,19.90
2008,08,22,13,53,19.80
2008,08,22,13,54,19.90
2008,08,22,13,55,20.00
2008,08,22,13,56,20.20
2008,08,22,13,57,20.30
2008,08,22,13,58,20.40
2008,08,22,13,59,20.40
2008,08,22,14,00,20.30
2008,08,22,14,01,20.20
2008,08,22,14,02,20.10
2008,08,22,14,03,20.10
2008,08,22,14,04,20.20
2008,08,22,14,05,20.20
2008,08,22,14,06,20.30
2008,08,22,14,07,20.40
2008,08,22,14,08,20.50
2008,08,22,14,09,20.50
2008,08,22,14,10,20.50
2008,08,22,14,11,20.50
2008,08,22,14,12,20.60
2008,08,22,14,13,20.70
2008,08,22,14,14,20.80
2008,08,22,14,15,20.70
2008,08,22,14,16,20.70
2008,08,22,14,17,20.70
2008,08,22,14,18,20.70
2008,08,22,14,19,20.60
2008,08,22,14,20,20.60
2008,08,22,14,21,20.50
2008,08,22,14,22,20.30
2008,08,22,14,23,20.30
2008,08,22,14,24,20.30
2008,08,22,14,25,20.30
2008,08,22,14,26,20.20
2008,08,22,14,27,20.20
2008,08,22,14,28,20.30
2008,08,22,14,29,20.30
2008,08,22,14,30,20.40
2008,08,22,14,31,20.40
2008,08,22,14,32,20.40
2008,08,22,14,33,20.40
2008,08,22,14,34,20.50
2008,08,22,14,35,20.50
2008,08,22,14,36,20.50
2008,08,22,14,37,20.60
2008,08,22,14,38,20.50
2008,08,22,14,39,20.50
2008,08,22,14,40,20.50
2008,08,22,14,41,20.50
2008,08,22,14,42,20.40
2008,08,22,14,43,20.30
2008,08,22,14,44,20.20
2008,08,22,14,45,20.30
2008,08,22,14,46,20.30
2008,08,22,14,47,20.20
2008,08,22,14,48,20.20
2008,08,22,14,49,20.20
2008,08,22,14,50,20.00
2008,08,22,14,51,19.90
2008,08,22,14,52,19.90
2008,08,22,14,53,20.00
2008,08,22,14,54,20.10
2008,08,22,14,55,20.10
2008,08,22,14,56,20.20
2008,08,22,14,57,20.20
2008,08,22,14,58,20.20
2008,08,22,14,59,20.20
2008,08,22,15,00,20.30
2008,08,22,15,01,20.30
2008,08,22,15,02,20.30
2008,08,22,15,03,20.40
2008,08,22,15,04,20.50
2008,08,22,15,05,20.50
2008,08,22,15,06,20.50
2008,08,22,15,07,20.50
2008,08,22,15,08,20.60
2008,08,22,15,09,20.60
2008,08,22,15,10,20.50
2008,08,22,15,11,20.40
2008,08,22,15,12,20.40
2008,08,22,15,13,20.40
2008,08,22,15,14,20.40
2008,08,22,15,15,20.40
2008,08,22,15,16,20.50
2008,08,22,15,17,20.60
2008,08,22,15,18,20.60
2008,08,22,15,19,20.70
2008,08,22,15,20,20.70
2008,08,22,15,21,20.70
2008,08,22,15,22,20.70
2008,08,22,15,23,20.70
2008,08,22,15,24,20.70
2008,08,22,15,25,20.70
2008,08,22,15,26,20.70
2008,08,22,15,27,20.70
2008,08,22,15,28,20.70
2008,08,22,15,29,20.70
2008,08,22,15,30,20.70
2008,08,22,15,31,20.80
2008,08,22,15,32,20.90
2008,08,22,15,33,21.00
2008,08,22,15,34,21.10
2008,08,22,15,35,21.20
2008,08,22,15,36,21.30
2008,08,22,15,37,21.30
2008,08,22,15,38,21.50
2008,08,22,15,39,21.50
2008,08,22,15,40,21.70
2008,08,22,15,41,21.80
2008,08,22,15,42,21.80
2008,08,22,15,43,21.80
2008,08,22,15,44,21.70
2008,08,22,15,45,21.70
2008,08,22,15,46,21.70
2008,08,22,15,47,21.80
2008,08,22,15,48,22.00
2008,08,22,15,49,22.00
2008,08,22,15,50,22.00
2008,08,22,15,51,21.80
2008,08,22,15,52,21.70
2008,08,22,15,53,21.60
2008,08,22,15,54,21.50
2008,08,22,15,55,21.40
2008,08,22,15,56,21.40
2008,08,22,15,57,21.30
2008,08,22,15,58,21.30
2008,08,22,15,59,21.30
2008,08,22,16,00,21.30
2008,08,22,16,01,21.30
2008,08,22,16,02,21.30
2008,08,22,16,03,21.30
2008,08,22,16,04,21.30
2008,08,22,16,05,21.30
2008,08,22,16,06,21.20
2008,08,22,16,07,21.20
2008,08,22,16,08,21.20
2008,08,22,16,09,21.10
2008,08,22,16,10,21.10
2008,08,22,16,11,21.10
2008,08,22,16,12,21.00
2008,08,22,16,13,21.00
2008,08,22,16,14,21.10
2008,08,22,16,15,21.10
2008,08,22,16,16,21.10
2008,08,22,16,17,21.10
2008,08,22,16,18,21.10
2008,08,22,16,19,21.20
2008,08,22,16,20,21.20
2008,08,22,16,21,21.20
2008,08,22,16,22,21.20
2008,08,22,16,23,21.20
2008,08,22,16,24,21.10
2008,08,22,16,25,21.10
2008,08,22,16,26,21.00
2008,08,22,16,27,20.90
2008,08,22,16,28,20.80
2008,08,22,16,29,20.70
2008,08,22,16,30,20.70
2008,08,22,16,31,20.70
2008,08,22,16,32,20.70
2008,08,22,16,33,20.60
2008,08,22,16,34,20.60
2008,08,22,16,35,20.60
2008,08,22,16,36,20.60
2008,08,22,16,37,20.60
2008,08,22,16,38,20.60
2008,08,22,16,39,20.60
2008,08,22,16,40,20.60
2008,08,22,16,41,20.60
2008,08,22,16,42,20.60
2008,08,22,16,43,20.60
2008,08,22,16,44,20.60
2008,08,22,16,45,20.60
2008,08,22,16,46,20.60
2008,08,22,16,47,20.60
2008,08,22,16,48,20.60
2008,08,22,16,49,20.70
2008,08,22,16,50,20.70
2008,08,22,16,51,20.70
2008,08,22,16,52,20.70
2008,08,22,16,53,20.70
2008,08,22,16,54,20.70
2008,08,22,16,55,20.70
2008,08,22,16,56,20.70
2008,08,22,16,57,20.70
2008,08,22,16,58,20.80
2008,08,22,16,59,20.80
2008,08,22,17,00,20.80
2008,08,22,17,01,20.80
2008,08,22,17,02,20.70
2008,08,22,17,03,20.70
2008,08,22,17,04,20.80
2008,08,22,17,05,20.80
2008,08,22,17,06,20.80
2008,08,22,17,07,20.70
2008,08,22,17,08,20.70
2008,08,22,17,09,20.70
2008,08,22,17,10,20.60
2008,08,22,17,11,20.60
2008,08,22,17,12,20.60
2008,08,22,17,13,20.50
2008,08,22,17,14,20.40
2008,08,22,17,15,20.40
2008,08,22,17,16,20.40
2008,08,22,17,17,20.40
2008,08,22,17,18,20.30
2008,08,22,17,19,20.30
2008,08,22,17,20,20.30
2008,08,22,17,21,20.30
2008,08,22,17,22,20.40
2008,08,22,17,23,20.40
2008,08,22,17,24,20.40
2008,08,22,17,25,20.40
2008,08,22,17,26,20.40
2008,08,22,17,27,20.30
2008,08,22,17,28,20.30
2008,08,22,17,29,20.30
2008,08,22,17,30,20.30
2008,08,22,17,31,20.30
2008,08,22,17,32,20.30
2008,08,22,17,33,20.30
2008,08,22,17,34,20.30
2008,08,22,17,35,20.30
2008,08,22,17,36,20.30
2008,08,22,17,37,20.30
2008,08,22,17,38,20.30
2008,08,22,17,39,20.30
2008,08,22,17,40,20.30
2008,08,22,17,41,20.30
2008,08,22,17,42,20.40
2008,08,22,17,43,20.40
2008,08,22,17,44,20.50
2008,08,22,17,45,20.50
2008,08,22,17,46,20.60
2008,08,22,17,47,20.60
2008,08,22,17,48,20.60
2008,08,22,17,49,20.60
2008,08,22,17,50,20.60